Kelso-Longview, WA
on Tuesday, December 18, 2012

Tuesday
Previous Day Next Day
Daily Summary
 ActualAverage (KSPB)Record (KSPB)
Temperature
Mean Temperature °F °F  
Max Temperature 39°F °F 54°F (2003)
Min Temperature 33°F °F 19°F (2005)
Degree Days
Heating Degree Days 29    
Month to date heating degree days  
Since 1 July heating degree days  
Cooling Degree Days 0    
Month to date cooling degree days  
Year to date cooling degree days  
Moisture
Dew Point 32°F   
Average Humidity 83    
Maximum Humidity 93    
Minimum Humidity 75    
Precipitation
Precipitation 0.30 in in 0.66 in (2007)
Month to date precipitation  
Year to date precipitation  
Wind
Wind Speed 10 mph   
Max Wind Speed 16 mph   
Max Gust Speed 23 mph   
Visibility 10 miles   
Events     

Key: T is trace of precipitation, MM is missing value
Source: NWS Daily Summary
Time(PST)TemperatureDew PointHumidity Pressure Visibility Wind DirectionWind SpeedGust SpeedPrecipitationEvents Conditions
12:15 AM 35.6°F 32.0°F 87% 29.97 in 10.0 miles SSE 9.2 mph - N/A   Overcast
12:35 AM 35.6°F 33.8°F 93% 29.97 in 10.0 miles SSE 9.2 mph - N/A   Overcast
12:55 AM 35.6°F 32.0°F 87% 29.96 in 10.0 miles SSE 12.7 mph - 0.01 in   Overcast
1:15 AM 35.6°F 32.0°F 87% 29.96 in 10.0 miles SSE 13.8 mph 19.6 mph N/A   Overcast
1:35 AM 35.6°F 32.0°F 87% 29.96 in 10.0 miles SE 9.2 mph 20.7 mph N/A   Overcast
1:55 AM 37.4°F 32.0°F 81% 29.96 in 10.0 miles SE 9.2 mph - N/A   Overcast
2:15 AM 35.6°F 32.0°F 87% 29.96 in 10.0 miles SE 11.5 mph 18.4 mph 0.01 in   Overcast
2:35 AM 37.4°F 32.0°F 81% 29.96 in 10.0 miles SE 11.5 mph - 0.01 in   Overcast
3:15 AM 35.6°F 32.0°F 87% 29.95 in 10.0 miles SSE 16.1 mph 21.9 mph N/A   Overcast
3:35 AM 35.6°F 32.0°F 87% 29.96 in 9.0 miles SE 13.8 mph - 0.03 in   Overcast
3:55 AM 35.6°F 30.2°F 81% 29.96 in 5.0 miles SE 9.2 mph - 0.07 in   Overcast
4:15 AM 35.6°F 32.0°F 87% 29.96 in 10.0 miles SE 11.5 mph 19.6 mph 0.01 in   Overcast
4:35 AM 35.6°F 30.2°F 81% 29.96 in 10.0 miles SSE 11.5 mph 16.1 mph 0.01 in   Mostly Cloudy
4:55 AM 35.6°F 32.0°F 87% 29.96 in 10.0 miles SSE 10.4 mph - 0.02 in   Overcast
5:15 AM 35.6°F 30.2°F 81% 29.96 in 8.0 miles SSE 10.4 mph - 0.01 in   Overcast
5:35 AM 35.6°F 30.2°F 81% 29.96 in 7.0 miles SSE 10.4 mph 16.1 mph 0.02 in   Overcast
5:55 AM 35.6°F 30.2°F 81% 29.96 in 10.0 miles SSE 10.4 mph 16.1 mph 0.02 in   Overcast
6:15 AM 35.6°F 32.0°F 87% 29.97 in 10.0 miles South 8.1 mph - N/A   Overcast
6:35 AM 35.6°F 30.2°F 81% 29.98 in 10.0 miles SSE 6.9 mph - 0.01 in   Overcast
6:55 AM 33.8°F 30.2°F 87% 29.98 in 2.0 miles SE 9.2 mph - 0.03 in   Overcast
7:15 AM 33.8°F 30.2°F 87% 29.98 in 10.0 miles SSE 6.9 mph - N/A   Overcast
7:35 AM 33.8°F 30.2°F 87% 29.98 in 10.0 miles SE 6.9 mph - N/A   Overcast
7:55 AM 33.8°F 30.2°F 87% 29.98 in 10.0 miles SE 6.9 mph - 0.03 in   Overcast
8:15 AM 35.6°F 30.2°F 81% 29.99 in 10.0 miles SSE 9.2 mph - 0.02 in   Mostly Cloudy
8:35 AM 35.6°F 30.2°F 81% 29.99 in 10.0 miles SE 8.1 mph - 0.04 in   Mostly Cloudy
8:55 AM 35.6°F 30.2°F 81% 29.99 in 10.0 miles SE 9.2 mph - 0.05 in   Overcast
9:15 AM 35.6°F 30.2°F 81% 30.00 in 10.0 miles SSE 6.9 mph - N/A   Overcast
9:35 AM 35.6°F 30.2°F 81% 30.01 in 10.0 miles SE 6.9 mph - N/A   Overcast
9:55 AM 35.6°F 30.2°F 81% 30.02 in 10.0 miles South 10.4 mph - N/A   Overcast
10:15 AM 35.6°F 30.2°F 81% 30.02 in 10.0 miles SSE 8.1 mph - 0.01 in   Overcast
10:35 AM 35.6°F 30.2°F 81% 30.03 in 8.0 miles SE 8.1 mph - 0.03 in   Overcast
10:55 AM 35.6°F 32.0°F 87% 30.03 in 10.0 miles SE 5.8 mph - 0.04 in   Overcast
11:15 AM 35.6°F 32.0°F 87% 30.02 in 10.0 miles SE 5.8 mph - N/A   Overcast
11:35 AM 37.4°F 33.8°F 87% 30.02 in 10.0 miles SE 5.8 mph - 0.01 in   Mostly Cloudy
11:55 AM 37.4°F 33.8°F 87% 30.01 in 10.0 miles SE 8.1 mph - 0.01 in   Overcast
12:15 PM 37.4°F 33.8°F 87% 30.01 in 10.0 miles SE 10.4 mph 17.3 mph N/A   Overcast
12:35 PM 39.2°F 33.8°F 81% 30.01 in 10.0 miles SSE 10.4 mph 19.6 mph N/A   Overcast
12:55 PM 37.4°F 33.8°F 87% 30.01 in 10.0 miles SE 10.4 mph 16.1 mph N/A   Overcast
1:15 PM 39.2°F 33.8°F 81% 30.00 in 10.0 miles SSE 10.4 mph - N/A   Overcast
1:35 PM 39.2°F 33.8°F 81% 30.01 in 10.0 miles SSE 5.8 mph - N/A   Overcast
1:55 PM 39.2°F 32.0°F 75% 30.01 in 10.0 miles SSE 6.9 mph - N/A   Overcast
2:15 PM 37.4°F 33.8°F 87% 30.02 in 10.0 miles SSE 6.9 mph - N/A   Overcast
2:35 PM 37.4°F 33.8°F 87% 30.01 in 10.0 miles SE 10.4 mph - 0.01 in   Overcast
2:55 PM 37.4°F 33.8°F 87% 30.02 in 10.0 miles SSE 9.2 mph - 0.01 in   Overcast
3:15 PM 37.4°F 33.8°F 87% 30.03 in 10.0 miles SE 5.8 mph - N/A   Mostly Cloudy
3:35 PM 37.4°F 32.0°F 81% 30.03 in 10.0 miles SE 8.1 mph - N/A   Mostly Cloudy
3:55 PM 37.4°F 33.8°F 87% 30.03 in 10.0 miles SSE 8.1 mph - N/A   Overcast
4:15 PM 37.4°F 32.0°F 81% 30.02 in 10.0 miles SE 5.8 mph - N/A   Overcast
4:35 PM 37.4°F 32.0°F 81% 30.03 in 10.0 miles South 4.6 mph - N/A   Overcast
4:55 PM 37.4°F 33.8°F 87% 30.03 in 10.0 miles SSE 4.6 mph - N/A   Overcast
5:15 PM 37.4°F 33.8°F 87% 30.03 in 10.0 miles SE 4.6 mph - N/A   Overcast
5:35 PM 37.4°F 32.0°F 81% 30.03 in 10.0 miles SSE 4.6 mph - N/A   Overcast
5:55 PM 37.4°F 32.0°F 81% 30.04 in 10.0 miles SSE 4.6 mph - N/A   Overcast
6:15 PM 37.4°F 32.0°F 81% 30.04 in 10.0 miles SSE 4.6 mph - N/A   Overcast
6:35 PM 37.4°F 33.8°F 87% 30.03 in 10.0 miles SE 6.9 mph - N/A   Overcast
6:55 PM 37.4°F 32.0°F 81% 30.03 in 10.0 miles SE 9.2 mph - N/A   Overcast
7:15 PM 37.4°F 32.0°F 81% 30.04 in 10.0 miles SSE 10.4 mph - N/A   Overcast
7:35 PM 37.4°F 32.0°F 81% 30.04 in 10.0 miles SE 9.2 mph - N/A   Overcast
7:55 PM 37.4°F 30.2°F 75% 30.04 in 10.0 miles SE 8.1 mph - N/A   Overcast
8:15 PM 37.4°F 30.2°F 75% 30.04 in 10.0 miles SE 11.5 mph 16.1 mph N/A   Overcast
8:35 PM 37.4°F 30.2°F 75% 30.04 in 10.0 miles SE 12.7 mph 17.3 mph N/A   Overcast
8:55 PM 37.4°F 30.2°F 75% 30.04 in 10.0 miles SE 10.4 mph 17.3 mph N/A   Overcast
9:15 PM 37.4°F 30.2°F 75% 30.04 in 10.0 miles SE 11.5 mph 18.4 mph N/A   Overcast
9:35 PM 37.4°F 32.0°F 81% 30.04 in 10.0 miles SE 13.8 mph 19.6 mph N/A   Overcast
9:55 PM 37.4°F 30.2°F 75% 30.04 in 10.0 miles SE 15.0 mph 20.7 mph N/A   Overcast
10:15 PM 37.4°F 30.2°F 75% 30.03 in 10.0 miles SE 11.5 mph 20.7 mph N/A   Overcast
10:35 PM 37.4°F 30.2°F 75% 30.03 in 10.0 miles SE 13.8 mph 21.9 mph N/A   Overcast
10:55 PM 37.4°F 30.2°F 75% 30.03 in 10.0 miles SE 13.8 mph 21.9 mph N/A   Overcast
11:15 PM 37.4°F 30.2°F 75% 30.02 in 10.0 miles SE 15.0 mph 19.6 mph N/A   Overcast
11:35 PM 37.4°F 32.0°F 81% 30.02 in 10.0 miles SE 12.7 mph 18.4 mph N/A   Overcast
11:55 PM 37.4°F 30.2°F 75% 30.01 in 10.0 miles SE 15.0 mph 23.0 mph N/A   Overcast
Moon Phase
Dec. 18 Dec. 20 Dec. 28 Jan. 04 Jan. 11
Sunrise:07:49 AM (PST) Moon Rise:11:13 AM (PST)12/18
Sunset:04:27 PM (PST) Moon Set:11:19 PM (PST)12/18

Copyright © 2014 The Weather Underground, Inc.